Location: Del Amo
(33.8464°N, 118.2104°W)
Time: 19:04:39
(UTC+00:00)

Vanguard 3 - Pass Details

Date: 20 September 2024
Orbit: 507 x 3224 km, 33.4° (Epoch: 05 October)

Event Time Altitude Azimuth Distance (km) Brightness Sun altitude
Rises 18:38:04 0° 286° (WNW) 7,184 11.7 53.2°
Reaches altitude 10° 18:43:07 10° 283° (WNW) 6,112 11.5 53.7°
Maximum altitude 19:01:16 58° 211° (SSW) 2,868 11.3 55.2°
Drops below altitude 10° 19:13:06 10° 136° (SE) 4,144 11.4 55.9°
Sets 19:15:51 0° 132° (SE) 4,827 11.5 56.1°
